TimeMDT,TemperatureF,Dew PointF,Humidity,Sea Level PressureIn,VisibilityMPH,Wind Direction,Wind SpeedMPH,Gust SpeedMPH,PrecipitationIn,Events,Conditions,WindDirDegrees,DateUTC
12:56 AM,43.0,33.1,68,30.06,-9999.0,Calm,Calm,-,N/A,,Unknown,0,2013-08-05 06:56:00
1:56 AM,42.1,33.1,70,30.07,-9999.0,Calm,Calm,-,N/A,,Unknown,0,2013-08-05 07:56:00
2:56 AM,41.0,34.0,76,30.06,-9999.0,NW,3.5,-,N/A,,Unknown,310,2013-08-05 08:56:00
3:56 AM,39.9,34.0,79,30.07,-9999.0,NW,3.5,-,N/A,,Unknown,320,2013-08-05 09:56:00
4:56 AM,37.9,33.1,83,30.09,-9999.0,Calm,Calm,-,N/A,,Unknown,0,2013-08-05 10:56:00
5:56 AM,37.0,32.0,82,30.10,-9999.0,Calm,Calm,-,N/A,,Unknown,0,2013-08-05 11:56:00
6:56 AM,37.0,32.0,82,30.12,-9999.0,Calm,Calm,-,N/A,,Unknown,0,2013-08-05 12:56:00
7:56 AM,46.0,37.9,73,30.11,-9999.0,Calm,Calm,-,N/A,,Unknown,0,2013-08-05 13:56:00
8:56 AM,55.9,44.1,64,30.09,-9999.0,Calm,Calm,-,N/A,,Unknown,0,2013-08-05 14:56:00
9:56 AM,59.0,45.0,60,30.10,-9999.0,Calm,Calm,-,N/A,,Unknown,0,2013-08-05 15:56:00
10:56 AM,62.1,44.1,52,30.09,-9999.0,Variable,3.5,-,N/A,,Unknown,0,2013-08-05 16:56:00
11:56 AM,64.9,37.9,37,30.09,-9999.0,East,4.6,-,N/A,,Unknown,80,2013-08-05 17:56:00
12:56 PM,69.1,39.9,35,30.07,-9999.0,Calm,Calm,-,N/A,,Unknown,0,2013-08-05 18:56:00
1:56 PM,73.9,23.0,15,30.03,-9999.0,West,8.1,18.4,N/A,,Unknown,260,2013-08-05 19:56:00
2:56 PM,75.9,21.9,13,29.99,-9999.0,Variable,6.9,17.3,N/A,,Unknown,0,2013-08-05 20:56:00
3:56 PM,77.0,18.0,11,29.97,-9999.0,West,12.7,23.0,N/A,,Unknown,270,2013-08-05 21:56:00
4:56 PM,75.9,25.0,15,29.98,-9999.0,SW,8.1,21.9,N/A,,Unknown,230,2013-08-05 22:56:00
5:56 PM,71.1,24.1,17,30.02,-9999.0,WNW,10.4,23.0,N/A,,Unknown,290,2013-08-05 23:56:00
6:56 PM,72.0,24.1,17,29.99,-9999.0,West,4.6,16.1,N/A,,Unknown,280,2013-08-06 00:56:00
7:56 PM,68.0,28.0,22,29.97,-9999.0,Calm,Calm,-,N/A,,Unknown,0,2013-08-06 01:56:00
8:56 PM,62.1,32.0,32,29.96,-9999.0,Calm,Calm,-,N/A,,Unknown,0,2013-08-06 02:56:00
9:56 PM,61.0,35.1,38,29.97,-9999.0,Calm,Calm,-,N/A,,Unknown,0,2013-08-06 03:56:00
10:56 PM,51.1,36.0,56,30.01,-9999.0,Calm,Calm,-,N/A,,Unknown,0,2013-08-06 04:56:00
11:56 PM,48.0,36.0,63,30.01,-9999.0,WNW,3.5,-,N/A,,Unknown,290,2013-08-06 05:56:00